Weather in Androniki

Russia / Yaroslavl Oblast     57°51′31″N   39°59′07″E
temp.,
°C
wind,
m/s
gust,
m/s
humid.,
%
clouds,
%
prec.,
mm/h
press.,
hPa
HPBL,
m
12 april, mon
mon1200:00+7ese3389100 0.0 103349
03:00+6ese239186 0.0 103434
06:00+5sse368819 0.0 103589
09:00+10sse487319 0.0 1036348
12:00+13sse576195 0.0 1035757
15:00+14se6858100 0.0 1034986
18:00+12ese61070100 0.0 1033649
21:00+9se61383100 0.0 1032573
13 april, tue
tue1300:00+8se51286100 0.0 1031452
03:00+6se4994100 0.0 1030252
06:00+5se389795 0.0 1029200
09:00+10sse4979100 0.0 1027328
12:00+16s695484 0.0 1026699
15:00+18s7945100 0.0 10251196
18:00+15s41055100 0.0 1024265
21:00+11s4106999 0.0 1025153
14 april, wed
wed1400:00+10s31072100 0.0 1024146
03:00+8s3573100 0.0 102478
06:00+8s38765 0.0 1023136
09:00+13s5105530 0.0 1023361
12:00+18s68406 0.0 1022849
15:00+19s673670 0.0 10201478
18:00+16s3849100 0.0 1020193
21:00+12s346128 0.0 102044
15 april, thu
thu1500:00+10ssw336874 0.0 101936
03:00+8w227395 0.0 102011
06:00+8ssw1173100 0.0 101910
09:00+12sse1258100 0.0 1019235
12:00+16sse1247100 0.0 1019675
15:00+17e1141100 0.0 10181166
18:00+15nne3557100 0.0 1017181
21:00+9nne51083100 0.0 1019346
16 april, fri
fri1600:00+7nne598699 0.0 1019360
03:00+6nne51086100 0.0 1019393
06:00+5nne61189100 0.1 1020538
09:00+5nne51092100 1.9 1022686
12:00+9nne79473 0.1 10231204
15:00+10nne79380 0.1 10241568
18:00+9nne59472 0.0 10251439
21:00+5nne612615 0.0 1027526